User: anonymous   Login
Location: *
(51.0333°S, 178.4667°E)
Time: 11:02:58
(UTC+00:00)
Language:

Cosmos 968 Rocket - Orbit

View from above orbital plane
View from above orbital plane
View from above satellite
View from above satellite

Ground track
Ground track

The orbit data is extracted from the following two-line orbital elements,

1 10521U 77119B   20028.84982753 +.00000031 +00000-0 +17853-4 0  9994
2 10521 074.0289 298.2154 0019814 077.3153 283.0216 14.40773635209622
Epoch (UTC): 28 January 2020 20:23:45
Eccentricity: 0.0019814
inclination: 74.0289°
perigee height: 742 km
apogee height: 770 km
right ascension of ascending node: 298.2154°
argument of perigee: 77.3153°
revolutions per day: 14.40773635
mean anomaly at epoch: 283.0216°
orbit number at epoch: 20962

The dashed part of the orbit path shows where the satellite is in the earth's shadow,  

DLR